GW3643 Weather Reports


Display with metric or nautical units.
time (UTC)temp
F
wind
direction
speed
MPH
gust
MPH
rain 1hr
in
rain 24hr
in
rain mn
in
humidity
%
barometer
mb
20260904201045 90 334 1.0 4.0 0.00 0.00 0.00 19 1021.7
20260904200542 91 0 0.0 1.0 0.00 0.00 0.00 19 1021.6
20260904200106 91 0 0.0 0.0 0.00 0.00 0.00 18 1021.6
20260904195543 91 0 0.0 0.0 0.00 0.00 0.00 18 1021.6
20260904195045 91 0 0.0 0.0 0.00 0.00 0.00 18 1021.4
20260904194605 92 0 0.0 0.0 0.00 0.00 0.00 19 1021.4
20260904194043 92 0 0.0 0.0 0.00 0.00 0.00 18 1021.3
20260904193546 92 0 0.0 0.0 0.00 0.00 0.00 18 1021.3
20260904193056 92 0 0.0 0.0 0.00 0.00 0.00 19 1021.3
20260904192545 93 0 0.0 0.0 0.00 0.00 0.00 17 1021.2
20260904192046 93 0 0.0 0.0 0.00 0.00 0.00 17 1021.3
20260904191602 93 0 0.0 0.0 0.00 0.00 0.00 16 1021.3
20260904191045 94 0 0.0 1.0 0.00 0.00 0.00 16 1021.2
20260904190543 94 0 0.0 1.0 0.00 0.00 0.00 16 1021.1
20260904190058 94 232 0.0 1.0 0.00 0.00 0.00 14 1021.2
20260904185543 94 0 0.0 1.0 0.00 0.00 0.00 15 1021.1
20260904185044 94 0 0.0 1.0 0.00 0.00 0.00 15 1021.0
20260904184606 95 232 0.0 1.0 0.00 0.00 0.00 15 1021.0
20260904184046 95 0 0.0 1.0 0.00 0.00 0.00 15 1021.1
20260904183546 95 0 0.0 1.0 0.00 0.00 0.00 15 1021.1
20260904183058 95 0 0.0 1.0 0.00 0.00 0.00 14 1021.1
20260904182546 96 0 0.0 1.0 0.00 0.00 0.00 14 1021.1
20260904182043 96 0 0.0 2.0 0.00 0.00 0.00 14 1021.1
20260904181557 96 0 0.0 2.0 0.00 0.00 0.00 14 1021.1
20260904181046 96 0 0.0 2.0 0.00 0.00 0.00 14 1021.1
20260904180546 96 0 0.0 3.0 0.00 0.00 0.00 13 1021.1
20260904180109 96 0 0.0 3.0 0.00 0.00 0.00 13 1021.1
20260904175544 96 228 0.0 1.0 0.00 0.00 0.00 14 1021.1
20260904175043 97 0 0.0 2.0 0.00 0.00 0.00 13 1021.1
20260904174559 97 0 0.0 5.0 0.00 0.00 0.00 13 1021.1
20260904174044 97 0 0.0 5.0 0.00 0.00 0.00 13 1021.1
20260904173542 97 222 1.0 5.0 0.00 0.00 0.00 13 1021.1
20260904173056 97 224 2.0 3.0 0.00 0.00 0.00 13 1021.1
20260904172544 98 167 1.0 4.0 0.00 0.00 0.00 13 1021.2
20260904172043 97 245 1.0 4.0 0.00 0.00 0.00 13 1021.2
20260904171601 98 193 0.0 4.0 0.00 0.00 0.00 13 1021.3
20260904171043 98 0 1.0 8.0 0.00 0.00 0.00 13 1021.2
20260904170543 98 211 0.0 8.0 0.00 0.00 0.00 13 1021.1
20260904170059 98 290 2.0 8.0 0.00 0.00 0.00 12 1021.2
20260904165547 98 201 1.0 6.0 0.00 0.00 0.00 12 1021.1
20260904165046 98 0 2.0 6.0 0.00 0.00 0.00 12 1021.1
20260904164558 98 236 1.0 5.0 0.00 0.00 0.00 12 1021.1
20260904164048 97 218 2.0 7.0 0.00 0.00 0.00 12 1021.1
20260904163542 97 182 3.0 7.0 0.00 0.00 0.00 12 1021.0
20260904163109 97 261 2.0 5.0 0.00 0.00 0.00 12 1021.1
20260904162543 97 192 2.0 9.0 0.00 0.00 0.00 12 1021.1
20260904162042 98 204 2.0 9.0 0.00 0.00 0.00 12 1021.3
20260904161557 98 207 2.0 7.0 0.00 0.00 0.00 12 1021.3
20260904161043 98 217 3.0 8.0 0.00 0.00 0.00 11 1021.4
20260904160543 98 263 3.0 10.0 0.00 0.00 0.00 12 1021.4
20260904160057 98 220 4.0 10.0 0.00 0.00 0.00 12 1021.3
20260904155542 98 203 3.0 7.0 0.00 0.00 0.00 12 1021.3
20260904155045 98 235 1.0 6.0 0.00 0.00 0.00 12 1021.4
20260904154555 98 213 2.0 8.0 0.00 0.00 0.00 12 1021.4
20260904154045 97 205 3.0 10.0 0.00 0.00 0.00 12 1021.3
20260904153543 97 155 4.0 10.0 0.00 0.00 0.00 12 1021.3
20260904153107 98 171 3.0 9.0 0.00 0.00 0.00 11 1021.4
20260904152545 98 143 3.0 9.0 0.00 0.00 0.00 11 1021.5
20260904152046 98 188 2.0 10.0 0.00 0.00 0.00 12 1021.4
20260904151558 97 161 4.0 10.0 0.00 0.00 0.00 12 1021.4
20260904151044 97 143 3.0 9.0 0.00 0.00 0.00 12 1021.5
20260904150543 97 139 3.0 9.0 0.00 0.00 0.00 12 1021.6
20260904150056 97 189 5.0 8.0 0.00 0.00 0.00 12 1021.6
20260904145543 98 185 2.0 8.0 0.00 0.00 0.00 12 1021.5
20260904145043 98 223 4.0 7.0 0.00 0.00 0.00 12 1021.5
20260904144557 98 234 1.0 6.0 0.00 0.00 0.00 12 1021.5
20260904144044 99 234 2.0 6.0 0.00 0.00 0.00 11 1021.6
20260904143543 98 0 2.0 7.0 0.00 0.00 0.00 11 1021.7
20260904143102 97 213 2.0 7.0 0.00 0.00 0.00 12 1021.8
20260904142546 98 184 2.0 7.0 0.00 0.00 0.00 11 1021.8
20260904142044 98 176 4.0 10.0 0.00 0.00 0.00 12 1021.8
20260904141617 98 0 3.0 10.0 0.00 0.00 0.00 12 1021.9
20260904141043 97 218 4.0 10.0 0.00 0.00 0.00 12 1021.9
20260904140542 97 189 4.0 9.0 0.00 0.00 0.00 12 1021.9
20260904140056 97 157 1.0 7.0 0.00 0.00 0.00 13 1022.0
20260904135542 97 187 3.0 7.0 0.00 0.00 0.00 13 1022.0
20260904135043 97 184 3.0 8.0 0.00 0.00 0.00 13 1022.1
20260904134558 97 198 3.0 8.0 0.00 0.00 0.00 13 1022.2
20260904134044 98 201 3.0 8.0 0.00 0.00 0.00 12 1022.2
20260904133544 97 168 1.0 9.0 0.00 0.00 0.00 12 1022.3
20260904133100 98 166 3.0 9.0 0.00 0.00 0.00 13 1022.3
20260904132544 98 200 1.0 7.0 0.00 0.00 0.00 13 1022.3
20260904132046 97 11 1.0 7.0 0.00 0.00 0.00 13 1022.4
20260904131631 98 257 3.0 7.0 0.00 0.00 0.00 13 1022.4
20260904131045 97 120 1.0 8.0 0.00 0.00 0.00 13 1022.4
20260904130545 97 194 3.0 8.0 0.00 0.00 0.00 13 1022.5
20260904130054 97 216 2.0 9.0 0.00 0.00 0.00 13 1022.5
20260904125544 96 220 4.0 9.0 0.00 0.00 0.00 14 1022.7
20260904125044 96 118 1.0 7.0 0.00 0.00 0.00 14 1022.7
20260904124558 95 176 1.0 7.0 0.00 0.00 0.00 15 1022.8
20260904124043 94 194 4.0 7.0 0.00 0.00 0.00 15 1022.8
20260904123544 95 232 1.0 8.0 0.00 0.00 0.00 14 1022.9
20260904123107 94 209 1.0 8.0 0.00 0.00 0.00 15 1022.9
20260904122543 96 194 2.0 7.0 0.00 0.00 0.00 14 1022.9
20260904122043 94 216 2.0 7.0 0.00 0.00 0.00 15 1023.0
20260904121557 95 188 2.0 8.0 0.00 0.00 0.00 14 1023.1
20260904121045 94 215 3.0 8.0 0.00 0.00 0.00 15 1023.2
20260904120545 95 208 3.0 8.0 0.00 0.00 0.00 15 1023.2
20260904120057 94 204 4.0 7.0 0.00 0.00 0.00 15 1023.3
20260904115543 94 209 2.0 7.0 0.00 0.00 0.00 14 1023.4
20260904115044 94 221 1.0 4.0 0.00 0.00 0.00 14 1023.4
20260904114601 94 122 1.0 7.0 0.00 0.00 0.00 14 1023.5
20260904114044 94 166 2.0 7.0 0.00 0.00 0.00 14 1023.4
20260904113544 96 174 0.0 5.0 0.00 0.00 0.00 14 1023.5
20260904113057 95 209 1.0 5.0 0.00 0.00 0.00 14 1023.6
20260904112545 94 186 1.0 5.0 0.00 0.00 0.00 15 1023.6
20260904112043 95 188 1.0 4.0 0.00 0.00 0.00 15 1023.7
20260904111557 93 0 1.0 5.0 0.00 0.00 0.00 15 1023.8
20260904111043 94 0 0.0 5.0 0.00 0.00 0.00 15 1023.8
20260904110543 94 220 1.0 5.0 0.00 0.00 0.00 15 1023.9
20260904110055 94 0 2.0 5.0 0.00 0.00 0.00 16 1024.0
20260904105543 95 215 0.0 5.0 0.00 0.00 0.00 16 1024.0
20260904105044 95 0 0.0 5.0 0.00 0.00 0.00 16 1024.0
20260904104611 93 238 1.0 5.0 0.00 0.00 0.00 16 1024.1
20260904104043 92 204 1.0 6.0 0.00 0.00 0.00 17 1024.2
20260904103543 91 188 0.0 6.0 0.00 0.00 0.00 17 1024.1
20260904103105 90 187 2.0 6.0 0.00 0.00 0.00 18 1024.2
20260904102546 90 18 0.0 3.0 0.00 0.00 0.00 18 1024.3
20260904102043 91 194 1.0 3.0 0.00 0.00 0.00 16 1024.3
20260904101603 91 0 0.0 3.0 0.00 0.00 0.00 17 1024.4
20260904101044 90 0 0.0 3.0 0.00 0.00 0.00 17 1024.4
20260904100548 90 337 1.0 3.0 0.00 0.00 0.00 17 1024.5
20260904100053 91 4 1.0 3.0 0.00 0.00 0.00 16 1024.6
20260904095546 92 31 0.0 2.0 0.00 0.00 0.00 16 1024.5
20260904095045 90 0 0.0 2.0 0.00 0.00 0.00 17 1024.5
20260904094558 87 0 0.0 2.0 0.00 0.00 0.00 19 1024.4
20260904094043 88 0 0.0 3.0 0.00 0.00 0.00 19 1024.3
20260904093544 88 0 0.0 3.0 0.00 0.00 0.00 20 1024.4
20260904093054 87 12 1.0 3.0 0.00 0.00 0.00 20 1024.4
20260904092543 89 333 0.0 3.0 0.00 0.00 0.00 20 1024.4
20260904092045 88 333 1.0 3.0 0.00 0.00 0.00 20 1024.4
20260904091601 87 295 1.0 3.0 0.00 0.00 0.00 21 1024.4
20260904091044 87 0 0.0 3.0 0.00 0.00 0.00 20 1024.5
20260904090543 85 0 1.0 4.0 0.00 0.00 0.00 20 1024.4
20260904090059 85 2 1.0 4.0 0.00 0.00 0.00 21 1024.3
20260904085543 85 358 1.0 3.0 0.00 0.00 0.00 21 1024.3
20260904085045 83 0 0.0 3.0 0.00 0.00 0.00 21 1024.3
20260904084559 83 131 0.0 3.0 0.00 0.00 0.00 21 1024.3
20260904084042 84 132 0.0 3.0 0.00 0.00 0.00 21 1024.2
20260904083544 83 0 0.0 3.0 0.00 0.00 0.00 22 1024.2
20260904083058 83 0 0.0 3.0 0.00 0.00 0.00 22 1024.3
20260904082543 82 0 0.0 4.0 0.00 0.00 0.00 22 1024.3
20260904082042 82 0 1.0 4.0 0.00 0.00 0.00 22 1024.1
20260904081601 83 49 0.0 4.0 0.00 0.00 0.00 22 1024.1
20260904081043 82 26 2.0 5.0 0.00 0.00 0.00 22 1024.2
20260904080543 82 7 2.0 5.0 0.00 0.00 0.00 22 1024.0
20260904080105 83 5 1.0 4.0 0.00 0.00 0.00 21 1024.0
20260904075543 82 12 1.0 4.0 0.00 0.00 0.00 22 1024.0
20260904075043 82 12 0.0 3.0 0.00 0.00 0.00 23 1024.0
20260904074622 80 0 0.0 3.0 0.00 0.00 0.00 23 1024.0
20260904074045 80 114 0.0 2.0 0.00 0.00 0.00 24 1024.0
20260904073542 79 0 0.0 3.0 0.00 0.00 0.00 24 1023.9
20260904073055 79 94 0.0 3.0 0.00 0.00 0.00 24 1024.0
20260904072543 79 0 0.0 3.0 0.00 0.00 0.00 24 1024.0
20260904072043 78 182 0.0 2.0 0.00 0.00 0.00 25 1024.0
20260904071602 78 0 0.0 3.0 0.00 0.00 0.00 25 1024.0
20260904071043 78 0 0.0 3.0 0.00 0.00 0.00 25 1024.0
20260904070548 77 0 0.0 2.0 0.00 0.00 0.00 25 1023.9
20260904070059 77 137 0.0 2.0 0.00 0.00 0.00 25 1024.0
20260904065542 77 136 0.0 2.0 0.00 0.00 0.00 25 1023.8
20260904065043 76 0 0.0 2.0 0.00 0.00 0.00 25 1023.8
20260904064557 76 0 0.0 2.0 0.00 0.00 0.00 25 1023.8
20260904064043 76 0 0.0 2.0 0.00 0.00 0.00 26 1023.8
20260904063544 75 0 0.0 2.0 0.00 0.00 0.00 26 1023.7
20260904063112 75 0 0.0 2.0 0.00 0.00 0.00 26 1023.6
20260904062550 75 0 0.0 1.0 0.00 0.00 0.00 26 1023.5
20260904062042 75 0 0.0 1.0 0.00 0.00 0.00 24 1023.5
20260904061602 75 0 0.0 1.0 0.00 0.00 0.00 25 1023.4
20260904061046 75 0 0.0 2.0 0.00 0.00 0.00 24 1023.2
20260904060546 76 0 0.0 2.0 0.00 0.00 0.00 24 1023.2
20260904060112 76 0 0.0 2.0 0.00 0.00 0.00 24 1023.2
20260904055546 76 0 0.0 1.0 0.00 0.00 0.00 24 1023.0
20260904055045 76 0 0.0 0.0 0.00 0.00 0.00 24 1023.1
20260904054608 76 0 0.0 0.0 0.00 0.00 0.00 25 1023.0
20260904054045 75 0 0.0 1.0 0.00 0.00 0.00 24 1023.0
20260904053546 75 0 0.0 2.0 0.00 0.00 0.00 24 1023.0
20260904053101 75 0 0.0 3.0 0.00 0.00 0.00 24 1023.0
20260904052546 76 357 0.0 3.0 0.00 0.00 0.00 24 1023.0
20260904052046 75 358 1.0 3.0 0.00 0.00 0.00 24 1023.2
20260904051558 76 7 1.0 5.0 0.00 0.00 0.00 24 1023.2
20260904051046 76 3 2.0 5.0 0.00 0.00 0.00 24 1023.2
20260904050545 76 9 2.0 4.0 0.00 0.00 0.00 23 1023.2
20260904050056 77 20 0.0 3.0 0.00 0.00 0.00 23 1023.1
20260904045545 77 20 0.0 2.0 0.00 0.00 0.00 23 1023.1
20260904045048 77 0 0.0 2.0 0.00 0.00 0.00 24 1023.1
20260904044607 77 0 0.0 3.0 0.00 0.00 0.00 23 1023.0
20260904044046 78 332 0.0 3.0 0.00 0.00 0.00 22 1023.2
20260904043546 78 346 1.0 3.0 0.00 0.00 0.00 21 1023.1
20260904043100 78 64 0.0 2.0 0.00 0.00 0.00 21 1023.0
20260904042545 79 0 0.0 1.0 0.00 0.00 0.00 21 1023.1
20260904042045 79 0 0.0 1.0 0.00 0.00 0.00 21 1023.1
20260904041554 79 0 0.0 1.0 0.00 0.00 0.00 21 1023.0
20260904041045 79 0 0.0 2.0 0.00 0.00 0.00 21 1023.1
20260904040545 79 0 0.0 2.0 0.00 0.00 0.00 21 1023.2
20260904040058 79 72 0.0 2.0 0.00 0.00 0.00 21 1023.2
20260904035543 79 0 0.0 2.0 0.00 0.00 0.00 20 1023.1
20260904035048 79 0 0.0 2.0 0.00 0.00 0.00 20 1023.1
20260904034609 79 0 0.0 3.0 0.00 0.00 0.00 20 1023.2
20260904034046 80 115 0.0 3.0 0.00 0.00 0.00 20 1023.2
20260904033545 80 0 0.0 3.0 0.00 0.00 0.00 20 1023.2
20260904033056 80 92 0.0 3.0 0.00 0.00 0.00 20 1023.2
20260904032545 80 91 0.0 3.0 0.00 0.00 0.00 20 1023.3
20260904032045 80 50 1.0 3.0 0.00 0.00 0.00 20 1023.4
20260904031555 80 0 0.0 1.0 0.00 0.00 0.00 20 1023.5
20260904031045 80 0 0.0 3.0 0.00 0.00 0.00 21 1023.5
20260904030546 80 0 0.0 3.0 0.00 0.00 0.00 21 1023.5
20260904025550 80 0 0.0 6.0 0.00 0.00 0.00 20 1023.4
20260904025044 80 0 0.0 6.0 0.00 0.00 0.00 21 1023.4
20260904024603 80 59 1.0 6.0 0.00 0.00 0.00 21 1023.4
20260904024045 80 0 0.0 4.0 0.00 0.00 0.00 20 1023.5
20260904023545 80 0 0.0 4.0 0.00 0.00 0.00 20 1023.4
20260904023103 81 0 0.0 3.0 0.00 0.00 0.00 20 1023.4
20260904022544 81 45 1.0 5.0 0.00 0.00 0.00 20 1023.4
20260904022044 81 0 1.0 5.0 0.00 0.00 0.00 20 1023.4
20260904021553 81 0 0.0 3.0 0.00 0.00 0.00 20 1023.4
20260904021043 81 65 0.0 3.0 0.00 0.00 0.00 20 1023.4
20260904020543 81 143 0.0 3.0 0.00 0.00 0.00 20 1023.5
20260904020053 82 0 0.0 3.0 0.00 0.00 0.00 19 1023.5
20260904015542 82 0 0.0 2.0 0.00 0.00 0.00 19 1023.5
20260904015047 82 0 0.0 2.0 0.00 0.00 0.00 19 1023.5
20260904014558 82 0 0.0 2.0 0.00 0.00 0.00 19 1023.5
20260904014046 82 84 0.0 2.0 0.00 0.00 0.00 19 1023.6
20260904013545 82 0 0.0 2.0 0.00 0.00 0.00 19 1023.7
20260904013055 82 0 0.0 1.0 0.00 0.00 0.00 19 1023.8
20260904012545 82 0 0.0 2.0 0.00 0.00 0.00 19 1023.8
20260904012048 82 0 0.0 4.0 0.00 0.00 0.00 19 1023.8
20260904011601 82 48 1.0 4.0 0.00 0.00 0.00 19 1023.8
20260904011046 83 0 0.0 4.0 0.00 0.00 0.00 19 1023.8
20260904010546 83 119 1.0 5.0 0.00 0.00 0.00 19 1023.8
20260904005545 83 61 1.0 5.0 0.00 0.00 0.00 19 1023.8
20260904005047 83 0 1.0 4.0 0.00 0.00 0.00 19 1023.8
20260904004600 83 32 0.0 4.0 0.00 0.00 0.00 19 1023.9
20260904004047 83 31 1.0 4.0 0.00 0.00 0.00 19 1023.9
20260904003545 83 5 0.0 4.0 0.00 0.00 0.00 19 1023.9
20260904003056 83 54 0.0 3.0 0.00 0.00 0.00 20 1023.9
20260904002545 82 0 0.0 2.0 0.00 0.00 0.00 20 1023.9
20260904002046 82 0 0.0 2.0 0.00 0.00 0.00 21 1024.0
20260904001556 82 0 0.0 1.0 0.00 0.00 0.00 23 1024.1
20260904001047 82 0 0.0 1.0 0.00 0.00 0.00 24 1024.0
20260904000548 82 0 0.0 2.0 0.00 0.00 0.00 24 1024.1
20260904000135 82 0 0.0 2.0 0.00 0.00 0.00 23 1024.0
20260903235543 82 0 0.0 1.0 0.00 0.00 0.00 25 1024.1
20260903235045 81 0 0.0 1.0 0.00 0.00 0.00 25 1024.1
20260903234558 81 0 0.0 1.0 0.00 0.00 0.00 24 1024.1
20260903234046 81 300 0.0 1.0 0.00 0.00 0.00 25 1024.1
20260903233545 81 0 0.0 2.0 0.00 0.00 0.00 25 1024.0
20260903233101 82 0 0.0 2.0 0.00 0.00 0.00 25 1024.0
20260903232548 82 300 0.0 1.0 0.00 0.00 0.00 24 1024.0
20260903232046 83 0 0.0 1.0 0.00 0.00 0.00 23 1023.9
20260903231556 83 0 0.0 1.0 0.00 0.00 0.00 24 1023.9
20260903231046 83 0 0.0 1.0 0.00 0.00 0.00 24 1023.8
20260903230546 83 0 0.0 0.0 0.00 0.00 0.00 24 1023.8
20260903225546 84 0 0.0 0.0 0.00 0.00 0.00 23 1023.8
20260903225045 84 0 0.0 0.0 0.00 0.00 0.00 23 1023.8
20260903224606 84 0 0.0 0.0 0.00 0.00 0.00 23 1023.7
20260903224043 84 0 0.0 0.0 0.00 0.00 0.00 22 1023.7
20260903223543 85 0 0.0 0.0 0.00 0.00 0.00 22 1023.7
20260903223054 85 0 0.0 0.0 0.00 0.00 0.00 22 1023.6
20260903222543 85 0 0.0 0.0 0.00 0.00 0.00 21 1023.7
20260903222046 85 0 0.0 0.0 0.00 0.00 0.00 20 1023.6
20260903221559 85 0 0.0 0.0 0.00 0.00 0.00 20 1023.6
20260903221046 86 0 0.0 0.0 0.00 0.00 0.00 20 1023.5
20260903220545 86 0 0.0 0.0 0.00 0.00 0.00 20 1023.5
20260903220111 87 0 0.0 0.0 0.00 0.00 0.00 20 1023.5
20260903215545 87 0 0.0 2.0 0.00 0.00 0.00 19 1023.4
20260903215043 87 0 0.0 2.0 0.00 0.00 0.00 18 1023.4
20260903214559 88 0 0.0 2.0 0.00 0.00 0.00 17 1023.4
20260903214043 88 51 0.0 3.0 0.00 0.00 0.00 17 1023.4
20260903213544 88 51 0.0 3.0 0.00 0.00 0.00 18 1023.3
20260903213102 88 301 0.0 3.0 0.00 0.00 0.00 19 1023.4
20260903212544 88 17 0.0 1.0 0.00 0.00 0.00 18 1023.4
20260903212046 88 0 0.0 1.0 0.00 0.00 0.00 18 1023.4
20260903211618 88 0 0.0 1.0 0.00 0.00 0.00 17 1023.4
20260903211048 88 0 0.0 1.0 0.00 0.00 0.00 18 1023.4
20260903210544 89 0 0.0 1.0 0.00 0.00 0.00 17 1023.4
20260903210108 89 0 0.0 1.0 0.00 0.00 0.00 18 1023.5
20260903205543 89 0 0.0 1.0 0.00 0.00 0.00 17 1023.4
20260903205043 89 0 0.0 2.0 0.00 0.00 0.00 17 1023.3
20260903204559 89 0 0.0 2.0 0.00 0.00 0.00 17 1023.3
20260903204045 89 0 0.0 2.0 0.00 0.00 0.00 17 1023.3
20260903203543 89 0 0.0 2.0 0.00 0.00 0.00 17 1023.2
20260903203056 89 0 0.0 3.0 0.00 0.00 0.00 16 1023.1
20260903202545 89 17 1.0 4.0 0.00 0.00 0.00 17 1023.0
20260903202048 89 5 1.0 4.0 0.00 0.00 0.00 16 1022.9
20260903201557 89 336 1.0 3.0 0.00 0.00 0.00 17 1022.8